Main page
METAR-TAF:

METAR-TAF

Airports :

Curaçao, Netherlands Antilles

Curaçao International Airport

latitude: 12-12N, longitude: 068-58W, elevation: 9 m

Current weather observation

The report was made 1 hour and 9 minutes ago, at 16:00 UTC
Wind 12 kt from the East
Temperature 31°C
Humidity 63%
Pressure 1013 hPa
Visibility 10 km or more
Few clouds at a height of 2200 ft

METAR: TNCC 231600Z 09012KT 9999 FEW022 31/23 Q1013 NOSIG

Time: 13:09 (17:09 UTC)

Forecast

The report was made 8 hours and 9 minutes ago, at 09:00 UTC
Forecast valid from 23 at 12 UTC to 24 at 12 UTC
Wind 14 kt from the East
Visibility 10 km or more
Scattered clouds at a height of 2000 ft

TAF: TNCC 230900Z 2312/2412 10014KT 9999 SCT020

Weather observations and forecasts of more than 4000 airports (METAR and TAF reports).

The available stations are represented by yellow and red dots on the map.

Hover mouse over dot to see the name of the station.

Then click to see weather observations and forecasts.

To change the map : click on the green buttons with a black cross to zoom in, on the green button with a dash to zoom out, or on the green arrows for adjacent maps.


METAR-TAF: